Overview Statistics Trail Chart Weather Telemetry Raw packets
 

This is the latest recevied weather packets stored in our database for station/object S51UL-6. If no packets are shown the sender has not sent any weather packets the latest 10 day(s).

<< 34 35 36 37 38 39 40 >>
Time Temp. Humidity Pressure Rain* Wind** Luminosity Snow
1788398173 17.22° C 87% 1021 hPa 3.56 mm - - -
1788397871 17.22° C 87% 1021 hPa 4.06 mm - - -
1788397271 16.67° C 87% 1021 hPa 5.08 mm - - -
1788396973 16.67° C 86% 1020.6 hPa 4.06 mm - - -
1788396671 16.67° C 86% 1020.7 hPa 4.06 mm - - -
1788396371 16.67° C 86% 1020.9 hPa 4.06 mm - - -
1788396071 16.67° C 86% 1020.7 hPa 4.06 mm - - -
1788395471 16.67° C 86% 1020.9 hPa 4.06 mm - - -
1788395171 16.67° C 85% 1020.9 hPa 4.06 mm - - -
1788394873 16.67° C 86% 1021 hPa 3.56 mm - - -
1788394272 16.67° C 85% 1021.4 hPa 2.54 mm - - -
1788393672 16.67° C 85% 1021.4 hPa 2.03 mm - - -
1788393072 16.67° C 85% 1021.5 hPa 3.05 mm - - -
1788392472 16.67° C 85% 1021.3 hPa 4.06 mm - - -
1788392173 16.67° C 85% 1021.3 hPa 5.08 mm - - -
1788391872 16.67° C 85% 1021.3 hPa 5.08 mm - - -
1788391573 16.67° C 85% 1021.2 hPa 4.57 mm - - -
1788391272 16.67° C 85% 1021.2 hPa 6.1 mm - - -
1788390673 16.67° C 85% 1021.1 hPa 6.6 mm - - -
1788390372 16.67° C 85% 1021.1 hPa 7.11 mm - - -
1788390072 16.67° C 84% 1021.1 hPa 9.91 mm - - -
1788389472 16.67° C 84% 1021 hPa 9.91 mm - - -
1788389174 16.67° C 84% 1021 hPa 9.91 mm - - -
1788388873 16.67° C 84% 1021.1 hPa 10.41 mm - - -
1788388273 16.67° C 84% 1020.9 hPa 9.91 mm - - -

* Rain latest hour (hover to see other rain measurements)
** Current wind speed in m/s (hover to see current wind gust speed)